Location: Pescara
(42.4670°N, 14.2170°E)
Time: 17:27:02
(UTC+02:00)

ISS - Pass Details

Date: 15 May 2021
Orbit: 417 x 422 km, 51.6° (Epoch: 18 June)

Event Time Altitude Azimuth Distance (km) Brightness Sun altitude
Rises 02:02:52 0° 303° (WNW) 2,372 0.3 -26.9°
Reaches altitude 10° 02:05:23 10° 322° (NW) 1,508 -0.6 -26.8°
Maximum altitude 02:07:54 19° 10° (N) 1,072 -0.9 -26.7°
Drops below altitude 10° 02:10:26 10° 58° (ENE) 1,508 -0.3 -26.5°
Sets 02:12:57 0° 77° (ENE) 2,372 0.5 -26.4°
